Regional Weather Roundup
Issued by NWS

Home | Current Version | Previous Version | Graphics & Text | Print | Product List | Glossary On
Versions: 1 2 3 4 5 6 7 8 9 10 11 12 13 14 15 16 17 18 19 20 21 22 23 24 25 26 27 28
000
ASUS45 KBOI 260610
RWRID

IDAHO REGIONAL WEATHER ROUNDUP
NATIONAL WEATHER SERVICE BOISE ID
1100 PM MST SAT FEB 25 2017

NOTE: "FAIR" INDICATES FEW OR NO CLOUDS BELOW 12000 FEET
WITH NO SIGNIFICANT WEATHER AND/OR OBSTRUCTIONS TO VISIBILITY

IDZ012-014-260700-
SOUTHWEST IDAHO


CITY           SKY/WX    TMP DP  RH WIND       PRES   REMARKS
BOISE          PTCLDY    29  18  63 SE7       29.97F WCI  22
CALDWELL       CLEAR     27  20  75 E7        29.98F WCI  19
MOUNTAIN HOME  CLEAR     23  20  89 SE8       29.98F WCI  14
$$

IDZ016-017-260700-
SOUTHCENTRAL IDAHO


CITY           SKY/WX    TMP DP  RH WIND       PRES   REMARKS
BURLEY         CLEAR     22  11  62 SW8       29.96S WCI  12
JEROME           N/A    N/A N/A N/A MISG      29.97F
TWIN FALLS     CLEAR     16   6  65 S16       29.96F WCI   1
$$

IDZ019>023-260700-
SOUTHEAST IDAHO


CITY           SKY/WX    TMP DP  RH WIND       PRES   REMARKS
IDAHO FALLS    CLEAR     11   9  92 SW7       29.91F WCI   0
POCATELLO      CLOUDY    20   8  60 S13       29.95S WCI   7
REXBURG        CLOUDY    13  11  92 CALM      29.91R
$$

IDZ006-010-011-018-031-032-260700-
CENTRAL IDAHO MOUNTAINS


CITY           SKY/WX    TMP DP  RH WIND       PRES   REMARKS
MCCALL         CLOUDY    19  10  68 CALM      29.84F
HAILEY         CLEAR     10   5  79 N8        29.91F WCI  -1
STANLEY          N/A      8   4  83 VRB3      29.84F
SALMON         CLOUDY    27  10  50 SW9       29.87S WCI  17
CHALLIS        PTCLDY    20   6  55 VRB3      29.86F
$$

IDZ002-004-006-007-026-260700-
NORTHERN IDAHO


CITY           SKY/WX    TMP DP  RH WIND       PRES   REMARKS
LEWISTON       CLOUDY    35  26  69 NE5       29.91F WCI  31
LOWELL           N/A     31  28  89 CALM      29.99S
COEUR D`ALENE  CLOUDY    31  25  78 S9        29.84F WCI  23
MULLAN PASS    LGT SNOW  15  13  91 VRB5      29.68S FOG     WCI   8
$$




USA.gov is the U.S. government's official web portal to all federal, state and local government web resources and services.